www.pogodaiklimat.ru

Погода и климат >> Архив погоды >> Аргентина >> Рио-Куарто


ПОГОДА в Рио-Куарто

  • Прогноз погоды в Рио-Куарто
  • Монитор погоды в Рио-Куарто

АРХИВ ПОГОДЫ в Рио-Куарто

Время (UTC), дата Ветер
(напр.,м/с)
 
Видим.   Явления Облачность Т
(С)
Тd
(С)
f
(%)
Тe
(С)
Тes
(С)
Комфортность P
(гПа)
Po
(гПа)
Тmin
(С)
Tmax
(С)
R
(мм)
R24
(мм)
S
(см)
06 9.01 С 6
{11}
15 км зарница 3/3 1350 м
[Cb cap]
+21.4 +19.7 90 +26 +26 душно 1001.7 954.8
09 9.01 В 3 5000 м зарница туман 6/6 600 м
[Cb cap]
+20.4 +20.2 99 +25 +25 комфорт 1003.4 956.2
12 9.01 ЮЗ 2 12 км гроза, ливневой дождь 10/4 750 м
[Cb cap As op Cs]
+17.0 +15.7 92 +17 +19 1008.1 960.2 +16.0 +25.2 4
15 9.01 ЮЗ 4 15 км гроза без осадков 10/5 450 м
[Cb cap As op Cs]
+17.7 +15.2 85 +18 +21 1007.5 959.4
18 9.01 Ю 8 15 км в посл. час гроза 10/5 450 м
[Cb cap As op]
+20.6 +17.3 81 +24 +24 комфорт 1006.3 958.6 2
21 9.01 Ю 5 15 км 10/5 600 м
[Cb cap As op]
+21.6 +17.7 78 +26 +26 душно 1006.1 958.4
00 10.01 ЮВ 7 10 км слаб. морось 10/6 1200 м
[Cb cap As op]
+20.3 +18.9 92 +24 +24 комфорт 1008.3 960.1 +17.0 +21.8 0.0
03 10.01 Ю 6 10 км {морось} 10/6 450 м
[Frnb As op]
+18.4 +17.0 92 +19 +19 1010.5 962.1
06 10.01 Ю 10 5000 м гроза, ливневой дождь {морось} 10/8 450 м
[Cb cap As op]
+15.6 +14.8 95 +13 +13 1011.5 963.0 2
09 10.01 Ю 12 5000 м слаб. морось {гроза, дождь} 10/6 450 м
[Frnb As op]
+10.0 +9.8 99 +5 +5 1016.8 967.7
12 10.01 Ю 9 12 км слаб. дождь {гроза} туман 10/4 300 м
[Frnb As op]
+10.4 +8.2 86 +6 +6 1020.7 971.4 +9.2 +20.3 9
15 10.01 Ю 9 15 км {дождь} 9/5 750 м
[Sc Ac As]
+12.0 +7.0 71 +9 +9 1022.2 972.8
18 10.01 Ю 7 15 км {дождь} 8/0
[Ac As]
+15.2 +7.4 60 +14 +16 1020.9 971.6 0.3
21 10.01 Ю 4 15 км ясно +17.4 +8.1 54 +17 +20 1019.7 970.1
00 11.01 штиль 0 15 км ясно +14.2 +11.1 82 +14 +14 1020.4 970.6 +10.4 +17.8
03 11.01 СЗ 1 15 км ясно +11.8 +9.7 87 +12 +12 1022.1 972.1
06 11.01 С 3 15 км ясно +11.2 +9.3 88 +10 +10 1020.5 970.8
09 11.01 С 3 15 км 1/0
[Ac trans]
+12.0 +9.5 85 +11 +11 1019.8 970.4
12 11.01 С 6 15 км 5/1 750 м
[Sc Ac As]
+14.7 +11.3 80 +13 +14 1019.8 970.4 +11.0 +14.7 0.3
15 11.01 С 8 15 км 4/1 750 м
[Sc Ac As]
+20.2 +9.0 48 +21 +24 комфорт 1017.8 968.6
18 11.01 СВ 8 15 км 5/1 750 м
[Sc Ac As]
+23.4 +9.3 41 +25 +27 комфорт 1015.6 966.8
21 11.01 С 9 15 км 6/4 750 м
[Cu Sc Ac As]
+23.6 +11.4 46 +25 +25 комфорт 1013.5 964.9
00 12.01 С 7 15 км 3/3 750 м
[Sc]
+20.4 +16.0 76 +23 +23 комфорт 1014.0 965.3 +14.7 +24.1
03 12.01 С 5 15 км ясно +18.4 +16.6 89 +19 +19 1014.6 966.2
06 12.01 С 3 15 км ясно +17.0 +15.5 91 +17 +17 1013.4 965.2
09 12.01 С 2 15 км 4/0
[Ac As]
+16.2 +14.7 91 +16 +16 1013.1 964.9
12 12.01 С 8 15 км 3/3 450 м
[St]
+20.0 +15.9 77 +22 +23 комфорт 1013.8 965.6 +15.5 +20.4
15 12.01 С 6
{11}
15 км 4/4 750 м
[Cu hum]
+24.4 +16.7 62 +28 +33 душно 1012.4 964.4
18 12.01 С 3 15 км 4/4 1050 м
[Cu med, cong]
+20.6 +17.2 81 +24 +33 комфорт 1010.5 962.6
21 12.01 СВ 9
{13}
15 км 1/1 1050 м
[Cu med, cong]
+26.6 +17.8 58 +31 +31 душно 1008.7 960.9
00 13.01 СВ 5
{8}
15 км 1/0
[Cs]
+22.6 +19.4 82 +29 +29 очень
душно
1009.0 961.2 +20.0 +27.5
03 13.01 С 4 15 км зарница 3/3 1050 м
[Cb calv]
+22.2 +21.5 96 +29 +29 очень
душно
1011.8 964.2
06 13.01 Ю 7 8000 м слаб. дождь 10/3 300 м
[Frnb As op]
+16.4 +15.6 95 +15 +15 1012.6 964.6 0.7
09 13.01 Ю 5 15 км {дождь} 10/10 300 м
[St]
+15.4 +14.9 97 +14 +14 1013.1 965.0
12 13.01 Ю 5 15 км {дождь} 9/6 450 м
[St Ac As]
+17.0 +14.5 85 +16 +17 1015.5 967.0 +15.0 +22.6 0.1
15 13.01 Ю 5 15 км 6/4 600 м
[Sc Ac As]
+20.7 +15.1 70 +24 +28 комфорт 1015.1 967.0
18 13.01 Ю 6 15 км 6/3 750 м
[Sc Ac As]
+24.3 +14.9 56 +27 +31 жарко 1014.5 966.2
21 13.01 Ю 7 15 км 6/3 900 м
[Sc Ac As]
+26.2 +17.0 57 +30 +31 душно 1013.1 965.0
00 14.01 ЮЗ 3 15 км 4/1 900 м
[Sc Ac As]
+21.2 +16.9 76 +25 +25 комфорт 1014.9 966.5 +17.0 +26.5
03 14.01 ЮЗ 3 15 км ясно +18.9 +16.1 84 +20 +20 1016.6 968.2
06 14.01 З 3 15 км ясно +16.8 +15.5 92 +17 +17 1014.7 966.5
09 14.01 З 33 15 км 5/3 1200 м
[Sc Ac As]
+15.8 +14.6 93 +12 +12 1013.9 965.8
12 14.01 З 1 15 км 10/5 750 м
[Cu Sc Ac As Cs]
+20.4 +17.1 81 +25 +27 комфорт 1015.4 967.2 +15.4 +21.2
15 14.01 В 2 15 км 10/8 750 м
[Cu med, cong Ac As Cs]
+24.3 +16.2 61 +28 +30 душно 1015.1 967.0
18 14.01 СВ 4 10 км слаб. дождь 10/6 750 м
[Cb cap As op Cs]
+22.3 +19.1 82 +28 +31 душно 1014.3 966.0 0.0
21 14.01 В 3 15 км {дождь} 6/4 750 м
[Cb cap Ac As Cs]
+23.5 +13.5 53 +26 +28 жарко 1011.9 963.7
00 15.01 С 3 10 км гроза, ливневой дождь 10/5 750 м
[Cb cap As op Cs]
+20.6 +16.9 79 +24 +24 комфорт 1012.7 964.6 +15.4 +24.8 0.6
03 15.01 З 3 6000 м 10/0 1500 м
[As op]
+18.0 +16.2 89 +18 +18 1014.1 966.0
06 15.01 СЗ 2 15 км слаб. дождь {гроза} 10/0 1500 м
[As op]
+16.6 +16.1 97 +17 +17 1012.7 964.4 5
09 15.01 З 2 7000 м слаб. дождь туман 9/0 1500 м
[As op]
+16.4 +15.7 96 +17 +17 1012.0 963.8
12 15.01 З 5 15 км {дождь} 9/3 1350 м
[Sc As op]
+18.8 +16.7 88 +20 +21 1012.7 964.5 +16.0 +20.6 0.8
15 15.01 ЮЗ 2 15 км 5/4 750 м
[Cu hum Ac As]
+23.4 +16.2 64 +28 +38 душно 1012.1 964.0
18 15.01 ЮВ 4 15 км 6/6 750 м
[Cu hum]
+26.0 +16.4 55 +29 +35 душно 1010.5 962.6
21 15.01 ЮВ 3 15 км 1/1 900 м
[Cu hum]
+26.6 +16.0 52 +30 +34 душно 1008.8 961.0
00 16.01 С 3 15 км ясно +23.1 +17.6 71 +28 +28 душно 1009.6 961.7 +16.0 +27.0

 

Местоположение метеостанции Рио-Куарто (Аргентина): широта -33.09 долгота -64.27 высота над уровнем моря 421 м.

В архиве по умолчанию представлена погода в Рио-Куарто за последнюю неделю. Архивные данные за месяц целиком и за предыдущие месяцы, начиная с января 2011 года, Вы можете получить, выбрав интересующий диапазон дат из раскрывающегося списка и нажав кнопку "Ввод!".


*Определитесь, кто Вы:
робот инопланетянин человек

Внимание! Время в таблицах - всемирное. Для получения местного времени необходимо прибавить поправку, которая равна -3 ч.

Смотрите также архив погоды в соседних городах и на ближайших метеорологических станциях:

Погода в Вилья Рейнольдс (Аргентина) (125 км)
Погода в Лабоулайе (Аргентина) (143 км)
Погода в Вилла Долорес (Аргентина) (150 км)
Погода в Пиларе (Аргентина) (163 км)
Погода в Сан-Луисе (Аргентина) (195 км)
Погода в Кордове (Аргентина) (198 км)
Погода в Маркос Хуарес (Аргентина) (203 км)
Погода в Хенераль Пико (Аргентина) (294 км)
Погода в Росарио (Аргентина) (326 км)
Погода в Хунине (Аргентина) (350 км)

Пояснения к столбцам:

Ветер - указаны скорость ветра в м/с - средняя за 10 мин, порывы в срок и между сроками (в фигурных скобках) и направление, откуда дует ветер: С - северный, СВ - северо-восточный, В - восточный, ЮВ - юго-восточный, Ю - южный, ЮЗ - юго-западный, З - западный, СЗ - северо-западный.
Видимость - горизонтальная дальность видимости в метрах или километрах. При видимости от 1 до 10 км при отсутствии осадков обычно наблюдается дымка, при ухудшении видимости до 1 км и менее - туман. В сухую погоду видимость может ухудшаться дымом, пылью или мглою.
Явления - указаны атмосферные явления, наблюдавшиеся в срок или в последний час перед сроком; фигурными скобками обозначены явления, наблюдавшиеся между сроками (за 1-3 часа до срока); квадратными скобками обозначены град или гололедные отложения с указанием их диаметра в мм.
Облачность - указаны через наклонную черту общая и нижняя облачность в баллах и высота нижней границы облаков в метрах; квадратными скобками обозначены формы облаков: Ci - перистые, Cs - перисто-слоистые, Cc - перисто-кучевые, Ac - высококучевые, As - высокослоистые, Sc - слоисто-кучевые, Ns - слоисто-дождевые, Cu - кучевые, Cb - кучево-дождевые. Подробнее классификацию облаков см. в Атласе облаков (PDF).
T - Температура воздуха - температура, измеренная на высоте 2 м над землей.
Td - Температура точки росы - температура, при понижении до которой содержащийся в воздухе водяной пар достигнет насыщения.
f - Относительная влажность воздуха - влажноcть воздуха, измеренная на высоте 2 м над землей.
Te - Эффективная температура - температура, которую ощущает одетый по сезону человек в тени. Характеристика душности погоды. При расчете учитывается влияние влажности воздуха и скорости ветра на теплоощущения человека.
Tes - Эффективная температура на солнце - температура, которую ощущает человек, с поправкой на солнечный нагрев. Характеристика знойности погоды. Зависит от высоты солнца над горизонтом, облачности и скорости ветра. Ночью, в пасмурную погоду, а также при ветре 12 м/с и более поправка равна нулю.
P - Атмосферное давление - приведенное к уровню моря атмосферное давление.
Po - Атмосферное давление - измеренное на уровне метеостанции атмосферное давление.
Tmin - Минимальная температура - минимум температуры воздуха на высоте 2 м над землей.
Tmax - Максимальная температура - максимум температуры воздуха на высоте 2 м над землей.
R - Количество осадков - Количество выпавших осадков за период времени, мм. При наведении курсора мыши на число - период времени, за который выпало указанное количество осадков.
R24 - Количество осадков - Количество выпавших осадков за 24 часа, мм.
S - Снежный покров - Высота снежного покрова, см. При наведении курсора мыши на число - состояние снежного покрова и степень покрытия местности в баллах.